This demonstration page uses our WeatherBlox Daily Observations layout. Learn more.

41.55636, -103.73856

Hourly Observations for June 16, 2020

Temp ( °F °C ) Dew Point ( °F °C ) Humidity (%) Winds ( mph kmh ) Pressure ( in mb ) Visibility ( mi km ) Precip ( " mm )
12:58 am 00:58 Clear 85 29.3 39 4.1 20 20 SSE 12 19 29.87 1011 10 16.0934 0 0
1:58 am 01:58 Clear 79 26 44 6.7 29 29 ESE 12 19 29.87 1011 10 16.0934 0 0
2:58 am 02:58 Clear 71 21.6 46 8 42 42 ESE 14 22 29.86 1011 10 16.0934 0 0
3:58 am 03:58 Mostly Clear 69 20.7 46 7.5 43 43 ESE 13 20 29.85 1011 10 16.0934 0 0
4:58 am 04:58 Clear 67 19.5 42 5.4 40 40 ESE 14 22 29.81 1010 10 16.0934 0 0
5:58 am 05:58 Clear 72 22.2 41 4.8 32 32 SSE 25 41 29.76 1008 10 16.0934 0 0
6:58 am 06:58 Clear 71 21.8 40 4.7 33 33 S 26 43 29.75 1007 10 16.0934 0 0
7:58 am 07:58 Clear 72 22.4 39 4.1 30 30 S 26 43 29.74 1007 10 16.0934 0 0
8:58 am 08:58 Clear 69 20.7 39 3.7 33 33 S 23 37 29.74 1007 10 16.0934 0 0
9:58 am 09:58 Clear 70 21 38 3.2 31 31 SSW 21 33 29.74 1007 10 16.0934 0 0
10:58 am 10:58 Mostly Clear 68 19.9 39 3.7 34 34 SSW 20 31 29.74 1007 10 16.0934 0 0
11:58 am 11:58 Sunny 66 18.9 41 5.1 40 40 S 15 24 29.75 1007 10 16.0934 0 0
12:58 pm 12:58 Mostly Sunny 68 20 41 5.2 38 38 SSW 15 24 29.75 1008 10 16.0934 0 0
1:58 pm 13:58 Mostly Sunny 69 20.6 43 6.2 39 39 Calm 29.77 1008 10 16.0934 0 0
2:58 pm 14:58 Sunny 74 23.6 46 7.5 36 36 ESE 5 7 29.77 1008 10 16.0934 0 0
3:58 pm 15:58 Sunny 78 25.5 46 7.7 32 32 S 5 7 29.76 1008 10 16.0934 0 0
4:58 pm 16:58 Sunny 84 29 45 7.2 25 25 SSE 8 13 29.74 1007 10 16.0934 0 0
5:58 pm 17:58 Sunny 89 31.4 40 4.3 18 18 SSE 10 17 29.71 1006 10 16.0934 0 0
6:58 pm 18:58 Sunny 92 33.1 36 2.3 14 14 SSE 15 24 29.69 1005 10 16.0934 0 0
7:58 pm 19:58 Sunny 92 33.5 37 2.7 14 14 SE 14 22 29.64 1004 10 16.0934 0 0
8:58 pm 20:58 Mostly Sunny 94 34.6 28 -2 9 9 S 24 39 29.61 1003 10 16.0934 0 0
9:58 pm 21:58 Mostly Sunny 94 34.7 30 -1.1 10 10 S 23 37 29.58 1002 10 16.0934 0 0
10:58 pm 22:58 Sunny 95 34.9 33 0.4 11 11 S 21 33 29.56 1001 10 16.0934 0 0
11:59 pm 23:59 Sunny 94 34.5 32 0 11 11 S 23 37 29.54 1000 10 16.0934 0 0

Powered by AerisWeather